Location: Mohawk View
(42.7837°N, 73.7885°W)
Time: 01:46:28
(UTC+00:00)

Cosmos 2297 - Pass Details

Date: 17 June 2021
Orbit: 836 x 858 km, 71.0° (Epoch: 02 August)

Event Time Altitude Azimuth Distance (km) Brightness Sun altitude
Rises 04:55:52 0° 339° (NNW) 3,396 8.0 -23.8°
Reaches altitude 10° 04:58:24 10° 344° (NNW) 2,460 7.1 -23.8°
Maximum altitude 05:03:53 51° 61° (ENE) 1,047 4.3 -23.8°
Enters shadow 05:06:15 32° 119° (ESE) 1,419 4.6 -23.8°
